FW8073 Weather Reports


time (UTC)temp
C
wind
direction
speed
KPH
gust
KPH
rain 1hr
cm
rain 24hr
cm
rain mn
cm
humidity
%
barometer
mb
20260903025658 27 234 11.3 14.5 0.00 0.00 0.00 90
20260903025154 27 229 4.8 8.0 0.00 0.00 0.00 90
20260903024648 27 231 6.4 11.3 0.00 0.00 0.00 91
20260903024147 27 220 9.7 14.5 0.00 0.00 0.00 90
20260903023644 27 224 3.2 8.0 0.00 0.00 0.00 91
20260903023144 27 231 4.8 8.0 0.00 0.00 0.00 91
20260903022638 27 232 4.8 8.0 0.00 0.00 0.00 90
20260903022137 27 228 4.8 6.4 0.00 0.00 0.00 90
20260903021638 27 216 3.2 8.0 0.00 0.00 0.00 90
20260903021132 27 230 3.2 3.2 0.00 0.00 0.00 90
20260903020628 27 222 3.2 3.2 0.00 0.00 0.00 90
20260903020128 27 232 1.6 6.4 0.00 0.00 0.00 89
20260903015623 27 226 6.4 8.0 0.00 0.00 0.00 89
20260903015119 27 229 4.8 6.4 0.00 0.00 0.00 89
20260903014618 27 234 3.2 8.0 0.00 0.00 0.00 89
20260903014118 27 218 4.8 6.4 0.00 0.00 0.00 89
20260903013613 27 213 6.4 6.4 0.00 0.00 0.00 88
20260903013107 27 230 3.2 6.4 0.00 0.00 0.00 88
20260903012606 27 191 3.2 6.4 0.00 0.00 0.00 88
20260903012106 27 226 6.4 8.0 0.00 0.00 0.00 88
20260903011605 27 234 4.8 8.0 0.00 0.00 0.00 87
20260903011105 27 225 3.2 6.4 0.00 0.00 0.00 87
20260903010601 27 231 4.8 6.4 0.00 0.00 0.00 87
20260903010059 27 235 3.2 6.4 0.00 0.00 0.00 88
20260903005554 28 238 3.2 6.4 0.00 0.00 0.00 86
20260903005049 28 237 3.2 6.4 0.00 0.00 0.00 86
20260903004544 28 234 3.2 3.2 0.00 0.00 0.00 85
20260903004040 28 233 3.2 3.2 0.00 0.00 0.00 85
20260903003535 28 233 3.2 6.4 0.00 0.00 0.00 84
20260903003030 28 222 4.8 6.4 0.00 0.00 0.00 83
20260903002525 28 231 4.8 6.4 0.00 0.00 0.00 84
20260903002019 29 228 3.2 3.2 0.00 0.00 0.00 83
20260903001514 29 231 3.2 3.2 0.00 0.00 0.00 82
20260903001013 29 218 3.2 6.4 0.00 0.00 0.00 81
20260903000509 30 229 1.6 3.2 0.00 0.00 0.00 80
20260903000008 30 231 3.2 8.0 0.00 0.00 0.00 81
20260902235502 30 223 4.8 11.3 0.00 0.00 0.00 79
20260902234957 30 236 4.8 14.5 0.00 0.00 0.00 79
20260902234451 30 255 11.3 14.5 0.00 0.00 0.00 78
20260902233950 30 236 3.2 6.4 0.00 0.00 0.00 79
20260902233449 30 230 3.2 8.0 0.00 0.00 0.00 77
20260902232944 30 226 9.7 11.3 0.00 0.00 0.00 76
20260902232439 31 237 6.4 14.5 0.00 0.00 0.00 77
20260902231938 31 231 4.8 8.0 0.00 0.00 0.00 76
20260902231433 31 248 6.4 8.0 0.00 0.00 0.00 74
20260902230928 31 242 6.4 14.5 0.00 0.00 0.00 73
20260902230428 31 238 9.7 14.5 0.00 0.00 0.00 73
20260902225922 31 231 8.0 11.3 0.00 0.00 0.00 71
20260902225417 32 259 11.3 17.7 0.00 0.00 0.00 70
20260902224916 32 207 11.3 17.7 0.00 0.00 0.00 71
20260902224415 32 196 12.9 14.5 0.00 0.00 0.00 70
20260902223913 32 220 19.3 24.1 0.00 0.00 0.00 69
20260902223413 32 228 12.9 20.9 0.00 0.00 0.00 70
20260902222908 32 240 14.5 17.7 0.00 0.00 0.00 69
20260902222406 32 229 11.3 14.5 0.00 0.00 0.00 70
20260902221905 32 232 11.3 17.7 0.00 0.00 0.00 69
20260902221405 32 253 17.7 24.1 0.00 0.00 0.00 68
20260902220900 32 220 14.5 17.7 0.00 0.00 0.00 68
20260902220400 32 233 9.7 11.3 0.00 0.00 0.00 68
20260902215855 32 258 16.1 20.9 0.00 0.00 0.00 66
20260902215350 32 222 9.7 14.5 0.00 0.00 0.00 68
20260902214846 32 247 16.1 20.9 0.00 0.00 0.00 67
20260902214345 33 239 11.3 11.3 0.00 0.00 0.00 66
20260902213840 33 222 11.3 14.5 0.00 0.00 0.00 67
20260902213336 33 246 11.3 14.5 0.00 0.00 0.00 65
20260902212834 33 257 11.3 17.7 0.00 0.00 0.00 65
20260902212331 32 249 8.0 11.3 0.00 0.00 0.00 66
20260902211827 33 284 11.3 14.5 0.00 0.00 0.00 65
20260902211322 33 249 19.3 24.1 0.00 0.00 0.00 63
20260902210818 33 229 17.7 29.0 0.00 0.00 0.00 63
20260902210312 32 233 11.3 24.1 0.00 0.00 0.00 64
20260902205810 32 235 14.5 24.1 0.00 0.00 0.00 63
20260902205306 33 260 17.7 29.0 0.00 0.00 0.00 61
20260902204800 33 275 11.3 14.5 0.00 0.00 0.00 65
20260902204255 33 227 6.4 6.4 0.00 0.00 0.00 63
20260902203751 33 205 11.3 14.5 0.00 0.00 0.00 63
20260902203251 33 205 11.3 14.5 0.00 0.00 0.00 63
20260902202745 33 241 6.4 11.3 0.00 0.00 0.00 62
20260902202242 33 228 11.3 14.5 0.00 0.00 0.00 62
20260902201738 33 234 11.3 14.5 0.00 0.00 0.00 62
20260902201237 33 265 17.7 20.9 0.00 0.00 0.00 61
20260902200733 33 227 12.9 17.7 0.00 0.00 0.00 62
20260902200228 33 261 14.5 14.5 0.00 0.00 0.00 61
20260902195724 33 264 12.9 24.1 0.00 0.00 0.00 61
20260902195223 33 275 9.7 11.3 0.00 0.00 0.00 64
20260902194723 33 229 8.0 14.5 0.00 0.00 0.00 62
20260902194218 33 242 6.4 11.3 0.00 0.00 0.00 62
20260902193713 33 238 11.3 17.7 0.00 0.00 0.00 62
20260902193209 33 223 11.3 14.5 0.00 0.00 0.00 59
20260902192707 33 255 16.1 17.7 0.00 0.00 0.00 59
20260902192206 33 229 4.8 8.0 0.00 0.00 0.00 62
20260902191701 33 226 14.5 20.9 0.00 0.00 0.00 61
20260902191155 33 256 9.7 11.3 0.00 0.00 0.00 61
20260902190651 33 228 12.9 14.5 0.00 0.00 0.00 60
20260902190146 34 259 11.3 14.5 0.00 0.00 0.00 59
20260902185641 33 231 14.5 17.7 0.00 0.00 0.00 60
20260902185137 33 258 12.9 14.5 0.00 0.00 0.00 60
20260902184632 33 246 17.7 20.9 0.00 0.00 0.00 58
20260902184127 33 266 17.7 20.9 0.00 0.00 0.00 59
20260902183623 33 223 16.1 29.0 0.00 0.00 0.00 58
20260902183120 33 222 17.7 20.9 0.00 0.00 0.00 59
20260902182615 33 235 27.4 29.0 0.00 0.00 0.00 60
20260902182112 33 224 9.7 11.3 0.00 0.00 0.00 63
20260902181608 33 232 8.0 17.7 0.00 0.00 0.00 62
20260902181106 33 205 14.5 20.9 0.00 0.00 0.00 62
20260902180601 33 231 17.7 24.1 0.00 0.00 0.00 62
20260902180057 33 262 14.5 29.0 0.00 0.00 0.00 61
20260902175557 33 245 8.0 17.7 0.00 0.00 0.00 64
20260902175053 33 241 9.7 17.7 0.00 0.00 0.00 64
20260902174549 33 295 17.7 29.0 0.00 0.00 0.00 61
20260902174044 33 231 20.9 25.7 0.00 0.00 0.00 60
20260902173544 33 232 16.1 17.7 0.00 0.00 0.00 63
20260902173038 33 230 14.5 24.1 0.00 0.00 0.00 63
20260902172533 33 229 16.1 24.1 0.00 0.00 0.00 65
20260902172028 33 231 12.9 14.5 0.00 0.00 0.00 66
20260902171524 33 234 11.3 24.1 0.00 0.00 0.00 64
20260902171020 33 232 12.9 20.9 0.00 0.00 0.00 65
20260902170514 32 264 16.1 32.2 0.00 0.00 0.00 64
20260902170010 32 245 14.5 20.9 0.00 0.00 0.00 66
20260902165509 32 235 14.5 17.7 0.00 0.00 0.00 67
20260902165004 32 224 20.9 25.7 0.00 0.00 0.00 66
20260902164459 32 224 20.9 25.7 0.00 0.00 0.00 66
20260902163958 32 246 9.7 11.3 0.00 0.00 0.00 71
20260902163454 32 246 9.7 11.3 0.00 0.00 0.00 71
20260902162951 32 246 9.7 11.3 0.00 0.00 0.00 71
20260902162446 32 246 9.7 11.3 0.00 0.00 0.00 71
20260902161941 31 234 24.1 32.2 0.00 0.00 0.00 70
20260902161436 31 234 24.1 32.2 0.00 0.00 0.00 70
20260902160932 31 234 24.1 32.2 0.00 0.00 0.00 70
20260902160427 31 237 12.9 14.5 0.00 0.00 0.00 71
20260902155925 31 272 14.5 17.7 0.00 0.00 0.00 75
20260902155421 31 225 14.5 14.5 0.00 0.00 0.00 75
20260902154914 30 228 8.0 11.3 0.00 0.00 0.00 77
20260902154410 30 226 9.7 11.3 0.00 0.00 0.00 77
20260902153909 30 253 11.3 14.5 0.00 0.00 0.00 75
20260902153408 30 219 11.3 14.5 0.00 0.00 0.00 78
20260902152904 30 247 11.3 11.3 0.00 0.00 0.00 77
20260902152400 30 247 11.3 11.3 0.00 0.00 0.00 77
20260902151856 30 213 8.0 8.0 0.00 0.00 0.00 77
20260902151351 30 238 9.7 14.5 0.00 0.00 0.00 76
20260902150851 30 230 11.3 14.5 0.00 0.00 0.00 77
20260902150347 30 251 9.7 11.3 0.00 0.00 0.00 78
20260902145846 30 218 17.7 24.1 0.00 0.00 0.00 78
20260902145342 30 244 9.7 11.3 0.00 0.00 0.00 80
20260902144837 29 255 8.0 8.0 0.00 0.00 0.00 79
20260902144333 29 242 6.4 8.0 0.00 0.00 0.00 81
20260902143828 29 239 16.1 17.7 0.00 0.00 0.00 79
20260902143328 29 244 14.5 24.1 0.00 0.00 0.00 79
20260902142824 29 248 11.3 14.5 0.00 0.00 0.00 81
20260902142320 28 239 9.7 11.3 0.00 0.00 0.00 81
20260902141815 28 222 11.3 11.3 0.00 0.00 0.00 82
20260902141310 28 232 8.0 11.3 0.00 0.00 0.00 83
20260902140804 28 244 6.4 11.3 0.00 0.00 0.00 85
20260902140259 28 237 9.7 11.3 0.00 0.00 0.00 85
20260902135758 28 241 8.0 8.0 0.00 0.00 0.00 85
20260902135254 28 258 8.0 8.0 0.00 0.00 0.00 85
20260902134754 27 238 8.0 8.0 0.00 0.00 0.00 86
20260902134249 27 231 3.2 6.4 0.00 0.00 0.00 87
20260902133745 27 241 11.3 14.5 0.00 0.00 0.00 87
20260902133244 27 237 6.4 8.0 0.00 0.00 0.00 89
20260902132739 27 241 6.4 11.3 0.00 0.00 0.00 90
20260902132235 26 249 4.8 6.4 0.00 0.00 0.00 90
20260902131730 26 253 6.4 8.0 0.00 0.00 0.00 91
20260902131227 26 232 8.0 8.0 0.00 0.00 0.00 91
20260902130726 26 233 8.0 11.3 0.00 0.00 0.00 92
20260902130222 25 247 8.0 11.3 0.00 0.00 0.00 93
20260902125717 25 240 6.4 8.0 0.00 0.00 0.00 95
20260902125213 25 265 8.0 8.0 0.00 0.00 0.00 97
20260902124709 24 244 6.4 8.0 0.00 0.00 0.00 99
20260902124210 23 244 3.2 6.4 0.00 0.00 0.00 99
20260902123705 23 245 3.2 3.2 0.00 0.00 0.00 99
20260902123201 23 233 1.6 3.2 0.00 0.00 0.00 99
20260902122700 23 239 0.0 3.2 0.00 0.00 0.00 99
20260902122156 23 237 1.6 3.2 0.00 0.00 0.00 99
20260902121651 22 213 3.2 3.2 0.00 0.00 0.00 99
20260902121150 22 233 1.6 3.2 0.00 0.00 0.00 99
20260902120647 22 239 0.0 3.2 0.00 0.00 0.00 99
20260902120143 22 237 0.0 3.2 0.00 0.00 0.00 99
20260902115637 22 234 0.0 3.2 0.00 0.00 0.00 99
20260902115134 22 232 0.0 0.0 0.00 0.00 0.00 99
20260902114629 22 237 0.0 0.0 0.00 0.00 0.00 99
20260902114129 22 236 0.0 0.0 0.00 0.00 0.00 99
20260902113625 22 236 0.0 0.0 0.00 0.00 0.00 99
20260902113120 22 236 0.0 0.0 0.00 0.00 0.00 99
20260902112615 22 236 0.0 0.0 0.00 0.00 0.00 99
20260902112112 22 236 0.0 0.0 0.00 0.00 0.00 99
20260902111608 22 235 0.0 0.0 0.00 0.00 0.00 99
20260902111103 22 235 0.0 0.0 0.00 0.00 0.00 99
20260902110559 22 235 0.0 0.0 0.00 0.00 0.00 99
20260902110055 22 235 0.0 0.0 0.00 0.00 0.00 99
20260902105555 22 236 0.0 0.0 0.00 0.00 0.00 99
20260902105054 22 236 0.0 0.0 0.00 0.00 0.00 99
20260902104551 22 236 0.0 0.0 0.00 0.00 0.00 99
20260902104050 22 236 0.0 0.0 0.00 0.00 0.00 99
20260902103540 22 235 0.0 0.0 0.00 0.00 0.00 99
20260902103035 22 235 0.0 0.0 0.00 0.00 0.00 99
20260902102532 22 236 0.0 3.2 0.00 0.00 0.00 99
20260902102029 22 237 0.0 0.0 0.00 0.00 0.00 99
20260902101524 22 234 0.0 6.4 0.00 0.00 0.00 99
20260902101022 22 234 0.0 0.0 0.00 0.00 0.00 99
20260902100518 22 236 0.0 0.0 0.00 0.00 0.00 99
20260902100017 22 236 0.0 0.0 0.00 0.00 0.00 99
20260902095517 22 235 0.0 0.0 0.00 0.00 0.00 99
20260902095016 22 237 0.0 0.0 0.00 0.00 0.00 99
20260902094512 22 237 0.0 0.0 0.00 0.00 0.00 99
20260902094007 22 237 0.0 0.0 0.00 0.00 0.00 99
20260902093502 22 238 0.0 0.0 0.00 0.00 0.00 99
20260902093001 22 242 0.0 0.0 0.00 0.00 0.00 99
20260902092457 22 244 0.0 0.0 0.00 0.00 0.00 99
20260902091956 22 235 0.0 0.0 0.00 0.00 0.00 99
20260902091452 22 235 0.0 0.0 0.00 0.00 0.00 99
20260902090948 23 235 0.0 0.0 0.00 0.00 0.00 99
20260902090443 23 235 0.0 0.0 0.00 0.00 0.00 99
20260902085942 23 235 0.0 0.0 0.00 0.00 0.00 99
20260902085437 23 235 0.0 0.0 0.00 0.00 0.00 99
20260902084933 23 235 0.0 0.0 0.00 0.00 0.00 99
20260902084429 23 235 0.0 0.0 0.00 0.00 0.00 99
20260902083924 23 234 0.0 0.0 0.00 0.00 0.00 99
20260902083419 23 233 0.0 0.0 0.00 0.00 0.00 99
20260902082919 23 241 0.0 0.0 0.00 0.00 0.00 99
20260902082414 23 243 0.0 0.0 0.00 0.00 0.00 99
20260902081911 23 243 0.0 0.0 0.00 0.00 0.00 99
20260902081407 23 243 0.0 0.0 0.00 0.00 0.00 99
20260902080903 23 243 0.0 0.0 0.00 0.00 0.00 99
20260902080359 23 244 0.0 0.0 0.00 0.00 0.00 99
20260902075858 23 244 0.0 0.0 0.00 0.00 0.00 99
20260902075354 23 244 0.0 0.0 0.00 0.00 0.00 99
20260902074849 24 244 0.0 0.0 0.00 0.00 0.00 99
20260902074345 24 244 0.0 0.0 0.00 0.00 0.00 99
20260902073839 24 244 0.0 0.0 0.00 0.00 0.00 99
20260902073336 25 243 0.0 3.2 0.00 0.00 0.00 99
20260902072832 25 249 1.6 3.2 0.00 0.00 0.00 99
20260902072326 25 247 3.2 6.4 0.00 0.00 0.00 99
20260902071824 25 250 4.8 11.3 0.00 0.00 0.00 99
20260902071318 25 248 1.6 3.2 0.00 0.00 0.00 99
20260902070815 25 242 0.0 0.0 0.00 0.00 0.00 99
20260902070314 25 243 3.2 6.4 0.00 0.00 0.00 99
20260902065813 25 242 0.0 0.0 0.00 0.00 0.00 99
20260902065308 25 243 0.0 0.0 0.00 0.00 0.00 99
20260902064804 25 243 0.0 0.0 0.00 0.00 0.00 99
20260902064300 25 233 3.2 3.2 0.00 0.00 0.00 99
20260902063755 25 249 3.2 6.4 0.00 0.00 0.00 99
20260902063249 25 242 1.6 3.2 0.00 0.00 0.00 99
20260902062749 25 240 3.2 8.0 0.00 0.00 0.00 99
20260902062244 25 240 3.2 6.4 0.00 0.00 0.00 99
20260902061743 25 227 4.8 6.4 0.00 0.00 0.00 99
20260902061238 26 226 4.8 8.0 0.00 0.00 0.00 99
20260902060735 26 228 4.8 8.0 0.00 0.00 0.00 98
20260902060231 26 238 3.2 8.0 0.00 0.00 0.00 98
20260902055726 26 243 3.2 8.0 0.00 0.00 0.00 98
20260902055222 26 243 4.8 8.0 0.00 0.00 0.00 98
20260902054717 26 234 3.2 8.0 0.00 0.00 0.00 98
20260902054213 26 240 4.8 8.0 0.00 0.00 0.00 99
20260902053708 26 245 6.4 8.0 0.00 0.00 0.00 99
20260902053208 26 248 11.3 14.5 0.00 0.00 0.00 99
20260902052707 26 244 4.8 6.4 0.00 0.00 0.00 99
20260902052203 26 255 3.2 6.4 0.00 0.00 0.00 99
20260902051702 25 232 6.4 8.0 0.00 0.00 0.00 99
20260902051156 25 244 4.8 6.4 0.00 0.00 0.00 99
20260902050651 25 242 0.0 6.4 0.00 0.00 0.00 99
20260902050147 26 235 6.4 6.4 0.00 0.00 0.00 99
20260902045641 26 227 4.8 11.3 0.00 0.00 0.00 99
20260902045137 26 233 4.8 6.4 0.00 0.00 0.00 99
20260902044632 26 245 6.4 8.0 0.00 0.00 0.00 99
20260902044128 26 243 4.8 6.4 0.00 0.00 0.00 99
20260902043622 26 250 6.4 11.3 0.00 0.00 0.00 99
20260902043118 26 236 6.4 8.0 0.00 0.00 0.00 99
20260902042612 25 235 11.3 14.5 0.00 0.00 0.00 99
20260902042108 25 242 8.0 11.3 0.00 0.00 0.00 99
20260902041607 25 222 9.7 11.3 0.00 0.00 0.00 99
20260902041102 25 245 8.0 8.0 0.00 0.00 0.00 99
20260902040601 25 235 6.4 8.0 0.00 0.00 0.00 99
20260902040056 25 232 4.8 8.0 0.00 0.00 0.00 99
20260902035555 25 232 6.4 8.0 0.00 0.61 0.61 99
20260902035050 25 247 6.4 11.3 0.00 0.61 0.61 99
20260902034550 25 241 4.8 8.0 0.00 0.61 0.61 99
20260902034049 25 246 6.4 11.3 0.00 0.61 0.61 99
20260902033548 25 226 4.8 11.3 0.00 0.61 0.61 99
20260902033043 25 232 4.8 11.3 0.13 0.61 0.61 99
20260902032542 25 231 6.4 8.0 0.13 0.61 0.61 99
20260902032037 25 236 6.4 6.4 0.00 0.58 0.58 99
20260902031532 25 240 4.8 8.0 0.00 0.58 0.58 99
20260902031028 25 231 6.4 6.4 0.00 0.58 0.58 99
20260902030523 25 239 3.2 6.4 0.00 0.58 0.58 99
20260902030022 25 230 4.8 8.0 0.00 0.58 0.58 99